Weather History for KPVB - September, 2012

Change the Weather History Date:

Thursday, September 20, 2012

  Actual Average (KDBQ) Record (KDBQ)
Temperature  
Mean Temperature 55 °F 60 °F  
Max Temperature 68 °F 71 °F 92 °F (1895)
Min Temperature 42 °F 50 °F 28 °F (1956)
Degree Days  
Heating Degree Days 10 6  
Month to date heating degree days 72  
Since 1 July heating degree days 99  
Cooling Degree Days 0 1  
Month to date cooling degree days 52  
Year to date cooling degree days 628  
Growing Degree Days 5 (Base 50)    
Moisture  
Dew Point 35 °F    
Average Humidity 53    
Maximum Humidity 81    
Minimum Humidity 23    
Precipitation  
Precipitation 0.00 in 0.12 in 2.27 in (1965)
Month to date precipitation 2.36  
Year to date precipitation 28.34  
Snow  
Snow 0.00 in 0.00 in - ()
Month to date snowfall 0.0  
Since 1 July snowfall 0.0  
Since 1 September snowfall 0.0  
Snow Depth -    
Sea Level Pressure  
Sea Level Pressure 29.91 in    
Wind  
Wind Speed 6 mph (West)    
Max Wind Speed 18 mph    
Max Gust Speed 30 mph    
Visibility 10 miles    
Events      
T = Trace of Precipitation, MM = Missing Value Source: NWS Daily Summary

Daily Weather History Graph

Daily Weather History Graph

Search for Another Location

Airport or City:

Trip Planner

Search our weather history database for the weather conditions in past years. The results will help you decide how hot, cold, wet, or windy it might be!

Date:

Astronomy

Sep. 20, 2012 Rise Set
Actual Time 6:47 AM CDT 7:01 PM CDT
Civil Twilight 6:19 AM CDT 7:29 PM CDT
Nautical Twilight 5:46 AM CDT 8:02 PM CDT
Astronomical Twilight 5:12 AM CDT 8:36 PM CDT
Moon 12:13 PM CDT (9/20) 9:55 PM CDT (9/20)
Length of Visible Light 13h 10m
Length of Day
12h 14m
Waxing Crescent, 27% of the Moon is Illuminated
Sep 20
Waxing Crescent
Sep 22
First Quarter
Sep 29
Full
Oct 8
Last Quarter
Oct 15
New

Hourly Weather History & Observations

Time (CDT) Temp. Windchill Dew Point Humidity Pressure Visibility Wind Dir Wind Speed Gust Speed Precip Events Conditions
12:15 AM 57.2 °F - 37.4 °F 48% 29.87 in 10.0 mi WNW 6.9 mph - N/A   Clear
12:35 AM 55.4 °F - 37.4 °F 51% 29.88 in 10.0 mi WNW 5.8 mph - N/A   Clear
12:55 AM 55.4 °F - 37.4 °F 51% 29.88 in 10.0 mi West 4.6 mph - N/A   Clear
1:15 AM 53.6 °F - 37.4 °F 54% 29.88 in 10.0 mi West 6.9 mph - N/A   Clear
1:35 AM 53.6 °F - 37.4 °F 54% 29.89 in 10.0 mi West 3.5 mph - N/A   Clear
1:55 AM 53.6 °F - 37.4 °F 54% 29.89 in 10.0 mi West 4.6 mph - N/A   Clear
2:15 AM 51.8 °F - 37.4 °F 58% 29.89 in 10.0 mi West 4.6 mph - N/A   Clear
2:35 AM 51.8 °F - 37.4 °F 58% 29.89 in 10.0 mi West 4.6 mph - N/A   Clear
2:55 AM 50.0 °F - 37.4 °F 62% 29.89 in 10.0 mi West 5.8 mph - N/A   Clear
3:15 AM 48.2 °F - 37.4 °F 66% 29.88 in 10.0 mi WSW 5.8 mph - N/A   Clear
3:35 AM 46.4 °F 44.3 °F 37.4 °F 71% 29.88 in 10.0 mi SW 4.6 mph - N/A   Clear
3:55 AM 46.4 °F 44.3 °F 37.4 °F 71% 29.89 in 10.0 mi WSW 4.6 mph - N/A   Clear
4:15 AM 44.6 °F 42.2 °F 37.4 °F 76% 29.89 in 10.0 mi WSW 4.6 mph - N/A   Clear
4:35 AM 46.4 °F 44.3 °F 37.4 °F 71% 29.89 in 10.0 mi SW 4.6 mph - N/A   Clear
4:55 AM 46.4 °F 44.3 °F 37.4 °F 71% 29.89 in 10.0 mi WSW 4.6 mph - N/A   Clear
5:15 AM 46.4 °F 44.3 °F 37.4 °F 71% 29.89 in 10.0 mi WSW 4.6 mph - N/A   Clear
5:35 AM 44.6 °F 41.4 °F 37.4 °F 76% 29.89 in 10.0 mi SW 5.8 mph - N/A   Clear
5:55 AM 44.6 °F 41.4 °F 37.4 °F 76% 29.89 in 10.0 mi WSW 5.8 mph - N/A   Clear
6:35 AM 42.8 °F 38.6 °F 37.4 °F 81% 29.90 in 10.0 mi WSW 6.9 mph - N/A   Clear
6:55 AM 42.8 °F 39.3 °F 37.4 °F 81% 29.91 in 10.0 mi WSW 5.8 mph - N/A   Clear
7:15 AM 44.6 °F 41.4 °F 37.4 °F 76% 29.91 in 10.0 mi WSW 5.8 mph - N/A   Clear
7:35 AM 46.4 °F 42.9 °F 37.4 °F 71% 29.92 in 10.0 mi West 6.9 mph - N/A   Clear
7:55 AM 48.2 °F - 41.0 °F 76% 29.92 in 10.0 mi WSW 4.6 mph - N/A   Clear
8:15 AM 51.8 °F - 41.0 °F 67% 29.92 in 10.0 mi WSW 5.8 mph - N/A   Clear
8:35 AM 50.0 °F - 41.0 °F 71% 29.93 in 10.0 mi West 5.8 mph - N/A   Clear
8:55 AM 53.6 °F - 39.2 °F 58% 29.93 in 10.0 mi West 9.2 mph - N/A   Clear
9:15 AM 55.4 °F - 37.4 °F 51% 29.93 in 10.0 mi West 9.2 mph - N/A   Clear
9:35 AM 57.2 °F - 37.4 °F 48% 29.93 in 10.0 mi West 8.1 mph - N/A   Clear
10:15 AM 59.0 °F - 37.4 °F 45% 29.93 in 10.0 mi West 8.1 mph - N/A   Clear
10:35 AM 60.8 °F - 37.4 °F 42% 29.93 in 10.0 mi West 9.2 mph - N/A   Clear
10:55 AM 62.6 °F - 35.6 °F 37% 29.93 in 10.0 mi NW 11.5 mph - N/A   Clear
11:15 AM 62.6 °F - 33.8 °F 34% 29.92 in 10.0 mi WNW 10.4 mph 16.1 mph N/A   Clear
11:35 AM 62.6 °F - 33.8 °F 34% 29.92 in 10.0 mi West 10.4 mph 20.7 mph N/A   Clear
2:55 PM 68.0 °F - 28.4 °F 23% 29.91 in 10.0 mi West 15.0 mph 25.3 mph N/A   Clear
3:15 PM 68.0 °F - 28.4 °F 23% 29.90 in 7.0 mi WNW 18.4 mph 25.3 mph N/A   Clear
3:35 PM 66.2 °F - 28.4 °F 24% 29.90 in 10.0 mi West 16.1 mph 29.9 mph N/A   Clear
4:15 PM 68.0 °F - 30.2 °F 24% 29.91 in 10.0 mi West 16.1 mph 24.2 mph N/A   Scattered Clouds
5:15 PM 62.6 °F - 32.0 °F 32% 29.91 in 10.0 mi NW 13.8 mph 18.4 mph N/A   Scattered Clouds
5:35 PM 62.6 °F - 32.0 °F 32% 29.91 in 7.0 mi WNW 6.9 mph 12.7 mph N/A   Scattered Clouds
6:35 PM 60.8 °F - 32.0 °F 34% 29.92 in 10.0 mi WNW 5.8 mph - N/A   Clear
6:55 PM 59.0 °F - 32.0 °F 36% 29.92 in 10.0 mi WNW 4.6 mph - N/A   Clear
7:15 PM 55.4 °F - 32.0 °F 41% 29.92 in 10.0 mi NW 5.8 mph - N/A   Clear
7:35 PM 53.6 °F - 32.0 °F 44% 29.93 in 10.0 mi West 4.6 mph - N/A   Clear
7:55 PM 53.6 °F - 32.0 °F 44% 29.93 in 10.0 mi West 3.5 mph - N/A   Clear
8:15 PM 53.6 °F - 32.0 °F 44% 29.93 in 10.0 mi WNW 3.5 mph - N/A   Clear
8:35 PM 51.8 °F - 32.0 °F 47% 29.94 in 10.0 mi Calm Calm - N/A   Clear
8:55 PM 51.8 °F - 32.0 °F 47% 29.94 in 10.0 mi Calm Calm - N/A   Clear
9:15 PM 50.0 °F - 33.8 °F 54% 29.94 in 10.0 mi Calm Calm - N/A   Clear
9:35 PM 51.8 °F - 32.0 °F 47% 29.94 in 10.0 mi Calm Calm - N/A   Clear
9:55 PM 50.0 °F - 32.0 °F 50% 29.94 in 10.0 mi South 3.5 mph - N/A   Clear
10:15 PM 51.8 °F - 32.0 °F 47% 29.94 in 10.0 mi SSW 3.5 mph - N/A   Clear
10:35 PM 50.0 °F - 32.0 °F 50% 29.94 in 10.0 mi Calm Calm - N/A   Clear
10:55 PM 51.8 °F - 32.0 °F 47% 29.94 in 10.0 mi SSW 3.5 mph - N/A   Clear
11:15 PM 51.8 °F - 32.0 °F 47% 29.94 in 10.0 mi Calm Calm - N/A   Clear
11:35 PM 50.0 °F - 32.0 °F 50% 29.94 in 10.0 mi Calm Calm - N/A   Clear
11:55 PM 50.0 °F - 32.0 °F 50% 29.94 in 10.0 mi South 3.5 mph - N/A   Clear